Location: Lane
(33.5226°N, 79.8788°W)
Time: 06:13:31
(UTC+00:00)

Vanguard 2 - Pass Details

Date: 03 October 2022
Orbit: 553 x 2933 km, 32.9° (Epoch: 26 November)

Event Time Altitude Azimuth Distance (km) Brightness Sun altitude
Rises 18:57:33 0° 257° (WSW) 4,776 12.1 44.3°
Reaches altitude 10° 19:00:13 10° 256° (WSW) 4,056 12.0 44.0°
Maximum altitude 19:12:01 84° 170° (S) 2,421 10.9 42.3°
Drops below altitude 10° 19:29:33 10° 85° (E) 5,742 11.7 39.7°
Sets 19:34:09 0° 85° (E) 6,785 12.0 39.0°
